Weather History for KBTM - January, 2013

Change the Weather History Date:

Wednesday, January 9, 2013

  Actual Average Record
Temperature  
Mean Temperature 32 °F 19 °F  
Max Temperature 40 °F 31 °F 49 °F (1990)
Min Temperature 23 °F 7 °F -44 °F (1962)
Degree Days  
Heating Degree Days 33 46  
Month to date heating degree days 436 417  
Since 1 July heating degree days 4101 4381  
Cooling Degree Days 0 0  
Month to date cooling degree days 0 0  
Year to date cooling degree days 0 0  
Moisture  
Dew Point 21 °F    
Average Humidity 62    
Maximum Humidity 75    
Minimum Humidity 48    
Precipitation  
Precipitation 0.00 in 0.02 in 0.25 in (1911)
Month to date precipitation 0.00 0.15  
Year to date precipitation 0.00 0.15  
Sea Level Pressure  
Sea Level Pressure 29.90 in    
Wind  
Wind Speed 10 mph (SSW)    
Max Wind Speed 24 mph    
Max Gust Speed 31 mph    
Visibility 9 miles    
Events      
T = Trace of Precipitation, MM = Missing Value Source: NWS Daily Summary

Daily Weather History Graph

Daily Weather History Graph

Search for Another Location

Airport or City:

Trip Planner

Search our weather history database for the weather conditions in past years. The results will help you decide how hot, cold, wet, or windy it might be!

Date:

Astronomy

Jan. 09, 2013 Rise Set
Actual Time 8:10 AM MST 5:04 PM MST
Civil Twilight 7:36 AM MST 5:38 PM MST
Nautical Twilight 6:59 AM MST 6:15 PM MST
Astronomical Twilight 6:23 AM MST 6:51 PM MST
Moon 5:54 AM MST (1/9) 3:09 PM MST (1/9)
Length of Visible Light 10h 01m
Length of Day
8h 54m
Waning Crescent, 6% of the Moon is Illuminated
Jan 9
Waning Crescent
Jan 11
New
Jan 18
First Quarter
Jan 26
Full
Feb 3
Last Quarter

Hourly Weather History & Observations

Time (MST) Temp. Windchill Dew Point Humidity Pressure Visibility Wind Dir Wind Speed Gust Speed Precip Events Conditions
12:53 AM 34.0 °F 29.8 °F 23.0 °F 64% 30.06 in - ESE 4.6 mph - N/A   Scattered Clouds
1:53 AM 30.9 °F - 21.9 °F 69% 30.09 in - Calm Calm - N/A   Clear
2:53 AM 27.0 °F - 19.9 °F 75% 30.11 in - Calm Calm - N/A   Partly Cloudy
3:53 AM 26.1 °F - 19.0 °F 75% 30.09 in - Calm Calm - N/A   Clear
4:53 AM 33.1 °F 23.4 °F 19.9 °F 59% 30.06 in - South 13.8 mph - N/A   Clear
5:00 AM 33.8 °F 26.4 °F 19.4 °F 56% 30.00 in 10.0 mi South 9.2 mph - N/A   Clear
5:53 AM 30.0 °F - 19.0 °F 64% 30.06 in - Calm Calm - N/A   Clear
6:53 AM 25.0 °F 17.1 °F 17.1 °F 72% 30.08 in 10.0 mi SSW 6.9 mph - N/A   Clear
7:53 AM 26.1 °F 19.4 °F 18.0 °F 71% 30.07 in 10.0 mi West 5.8 mph - N/A   Partly Cloudy
8:53 AM 30.0 °F - 18.0 °F 61% 30.04 in 10.0 mi Calm Calm - N/A   Scattered Clouds
9:53 AM 32.0 °F 25.6 °F 19.9 °F 61% 30.00 in 10.0 mi South 6.9 mph - N/A   Scattered Clouds
10:49 AM 37.4 °F 27.5 °F 21.2 °F 52% 29.93 in 1.8 mi SSW 18.4 mph 27.6 mph N/A   Haze
10:53 AM 37.4 °F 28.9 °F 21.2 °F 52% 29.93 in 0.8 mi SW 13.8 mph 24.2 mph N/A   Haze
11:17 AM 37.4 °F 28.2 °F 21.2 °F 52% 29.91 in 4.0 mi SSW 16.1 mph 29.9 mph N/A   Haze
11:53 AM 37.9 °F 28.2 °F 24.1 °F 57% 29.91 in 10.0 mi South 18.4 mph 26.5 mph N/A   Clear
12:53 PM 39.9 °F 30.0 °F 23.0 °F 51% 29.87 in 10.0 mi South 21.9 mph 28.8 mph N/A   Partly Cloudy
1:53 PM 39.0 °F 31.4 °F 25.0 °F 57% 29.85 in 10.0 mi South 12.7 mph 23.0 mph N/A   Clear
2:53 PM 39.9 °F 32.9 °F 24.1 °F 53% 29.84 in 10.0 mi South 11.5 mph 19.6 mph N/A   Clear
3:53 PM 39.0 °F 30.3 °F 24.1 °F 55% 29.83 in 10.0 mi South 16.1 mph 25.3 mph N/A   Clear
4:53 PM 37.0 °F 28.1 °F 24.1 °F 59% 29.78 in 10.0 mi South 15.0 mph - N/A   Clear
5:53 PM 37.0 °F 27.7 °F 23.0 °F 57% 29.76 in 10.0 mi South 16.1 mph - N/A   Clear
6:53 PM 36.0 °F 26.0 °F 23.0 °F 59% 29.76 in 10.0 mi South 17.3 mph - N/A   Clear
7:53 PM 39.0 °F 30.3 °F 21.9 °F 50% 29.73 in 10.0 mi South 16.1 mph 26.5 mph N/A   Clear
8:53 PM 37.9 °F 29.2 °F 21.9 °F 53% 29.71 in 10.0 mi South 15.0 mph - N/A   Clear
9:53 PM 37.0 °F 31.0 °F 21.9 °F 54% 29.68 in 10.0 mi South 8.1 mph - N/A   Clear
10:53 PM 37.0 °F 32.4 °F 21.0 °F 52% 29.65 in 10.0 mi West 5.8 mph - N/A   Clear
11:53 PM 37.9 °F 32.7 °F 19.9 °F 48% 29.62 in 10.0 mi SW 6.9 mph - N/A   Scattered Clouds